When you browse on this site, cookies collect data to enhance your experience and personalize the content and advertising you see.
Visit our Privacy Policy to learn more. By continuing to use the site, you agree to this use of cookies and data.

Meteo pe oră la Dzieczyna

Astăzi, 21 Septembrie, Luni

Timp Temperatura Precipitaţii Vânt Presiune Umiditate
00:00 +12°C° 0 mm 3 m/s 756 mmHg 73%
01:00 +12°C° 0 mm 3 m/s 755 mmHg 75%
02:00 +13°C° 0 mm 2 m/s 755 mmHg 78%
03:00 +12°C° 0 mm 2 m/s 755 mmHg 80%
04:00 +12°C° 0 mm 2 m/s 755 mmHg 83%
05:00 +12°C° 0 mm 2 m/s 755 mmHg 82%
06:00 +13°C° 0 mm 2 m/s 755 mmHg 81%
07:00 +13°C° 0 mm 2 m/s 755 mmHg 79%
08:00 +15°C° 0 mm 2 m/s 755 mmHg 71%
09:00 +18°C° 0 mm 2 m/s 755 mmHg 63%
10:00 +20°C° 0 mm 2 m/s 755 mmHg 55%
11:00 +21°C° 0 mm 2 m/s 755 mmHg 50%
12:00 +24°C° 0 mm 2 m/s 755 mmHg 45%
13:00 +25°C° 0 mm 2 m/s 755 mmHg 40%
14:00 +25°C° 0 mm 2 m/s 754 mmHg 41%
15:00 +25°C° 0 mm 2 m/s 754 mmHg 42%
16:00 +25°C° 0 mm 2 m/s 754 mmHg 43%
17:00 +23°C° 0 mm 2 m/s 754 mmHg 47%
18:00 +20°C° 0 mm 2 m/s 754 mmHg 50%
19:00 +18°C° 0 mm 2 m/s 753 mmHg 53%
20:00 +18°C° 0 mm 2 m/s 753 mmHg 55%
21:00 +17°C° 0 mm 2 m/s 753 mmHg 57%
22:00 +17°C° 0 mm 2 m/s 753 mmHg 58%
23:00 +16°C° 0 mm 2 m/s 753 mmHg 61%

Mâine, 22 Septembrie, Marţi

Timp Temperatura Precipitaţii Vânt Presiune Umiditate
00:00 +16°C° 0 mm 2 m/s 753 mmHg 63%
01:00 +16°C° 0 mm 2 m/s 753 mmHg 66%
02:00 +16°C° 0 mm 3 m/s 753 mmHg 66%
03:00 +14°C° 0 mm 3 m/s 752 mmHg 66%
04:00 +14°C° 0 mm 3 m/s 752 mmHg 65%
05:00 +14°C° 0 mm 3 m/s 752 mmHg 64%
06:00 +16°C° 0 mm 3 m/s 752 mmHg 63%
07:00 +16°C° 0 mm 3 m/s 752 mmHg 62%
08:00 +18°C° 0 mm 4 m/s 752 mmHg 56%
09:00 +20°C° 0 mm 4 m/s 751 mmHg 50%
10:00 +23°C° 0 mm 5 m/s 751 mmHg 44%
11:00 +25°C° 0 mm 5 m/s 751 mmHg 41%
12:00 +26°C° 0 mm 5 m/s 751 mmHg 39%
13:00 +27°C° 0 mm 5 m/s 750 mmHg 37%
14:00 +27°C° 0 mm 5 m/s 750 mmHg 40%
15:00 +27°C° 0 mm 4 m/s 749 mmHg 43%
16:00 +26°C° 0 mm 3 m/s 749 mmHg 46%
17:00 +25°C° 0 mm 3 m/s 749 mmHg 50%
18:00 +22°C° 0 mm 3 m/s 749 mmHg 54%
19:00 +20°C° 0 mm 3 m/s 749 mmHg 58%
20:00 +19°C° 0 mm 3 m/s 749 mmHg 59%
21:00 +19°C° 0 mm 3 m/s 749 mmHg 61%
22:00 +18°C° 0 mm 3 m/s 748 mmHg 63%
23:00 +18°C° 0 mm 3 m/s 748 mmHg 63%

Poimâine, 23 Septembrie, Miercuri

Timp Temperatura Precipitaţii Vânt Presiune Umiditate
00:00 +18°C° 0 mm 2 m/s 748 mmHg 63%
01:00 +17°C° 0 mm 2 m/s 748 mmHg 64%
02:00 +17°C° 0 mm 2 m/s 748 mmHg 64%
03:00 +17°C° 0 mm 2 m/s 747 mmHg 64%
04:00 +16°C° 0 mm 3 m/s 747 mmHg 64%
05:00 +16°C° 0 mm 3 m/s 747 mmHg 64%
06:00 +17°C° 0 mm 2 m/s 747 mmHg 64%
07:00 +17°C° 0 mm 2 m/s 747 mmHg 65%
08:00 +19°C° 0 mm 3 m/s 747 mmHg 60%
09:00 +21°C° 0 mm 3 m/s 747 mmHg 55%
10:00 +24°C° 0 mm 3 m/s 747 mmHg 50%
11:00 +25°C° 0 mm 3 m/s 747 mmHg 48%
12:00 +26°C° 0 mm 3 m/s 746 mmHg 46%
13:00 +27°C° 0 mm 3 m/s 746 mmHg 45%
14:00 +27°C° 0 mm 3 m/s 746 mmHg 47%
15:00 +26°C° 0 mm 3 m/s 746 mmHg 50%
16:00 +26°C° 0 mm 2 m/s 746 mmHg 53%
17:00 +25°C° 0 mm 2 m/s 746 mmHg 58%
18:00 +23°C° 0 mm 2 m/s 746 mmHg 64%
19:00 +20°C° 0 mm 2 m/s 746 mmHg 69%
20:00 +20°C° 0 mm 2 m/s 746 mmHg 71%
21:00 +19°C° 0 mm 2 m/s 746 mmHg 74%
22:00 +19°C° 0 mm 2 m/s 746 mmHg 76%
23:00 +19°C° 0.2 mm 2 m/s 746 mmHg 78%

24 Septembrie, Joi

Timp Temperatura Precipitaţii Vânt Presiune Umiditate
00:00 +18°C° 0.2 mm 2 m/s 746 mmHg 80%
01:00 +18°C° 0.2 mm 2 m/s 746 mmHg 82%
02:00 +18°C° 0.1 mm 2 m/s 746 mmHg 82%
03:00 +17°C° 0.1 mm 2 m/s 746 mmHg 81%
04:00 +17°C° 0.1 mm 2 m/s 746 mmHg 81%
05:00 +17°C° 0 mm 2 m/s 746 mmHg 80%
06:00 +18°C° 0 mm 2 m/s 747 mmHg 79%
07:00 +18°C° 0 mm 2 m/s 747 mmHg 79%
08:00 +20°C° 0 mm 3 m/s 747 mmHg 72%
09:00 +22°C° 0 mm 3 m/s 747 mmHg 65%
10:00 +25°C° 0 mm 3 m/s 747 mmHg 58%
11:00 +25°C° 0 mm 4 m/s 747 mmHg 53%
12:00 +26°C° 0 mm 4 m/s 747 mmHg 49%
13:00 +27°C° 0 mm 4 m/s 747 mmHg 45%
14:00 +27°C° 0 mm 4 m/s 747 mmHg 47%
15:00 +26°C° 0 mm 3 m/s 747 mmHg 50%
16:00 +26°C° 0 mm 3 m/s 747 mmHg 52%
17:00 +24°C° 0 mm 2 m/s 748 mmHg 56%
18:00 +23°C° 0 mm 2 m/s 748 mmHg 60%
19:00 +20°C° 0 mm 2 m/s 748 mmHg 64%
20:00 +20°C° 0 mm 2 m/s 748 mmHg 66%
21:00 +20°C° 0 mm 2 m/s 748 mmHg 68%
22:00 +19°C° 0 mm 2 m/s 748 mmHg 70%
23:00 +19°C° 0 mm 2 m/s 748 mmHg 71%

25 Septembrie, Vineri

Timp Temperatura Precipitaţii Vânt Presiune Umiditate
00:00 +18°C° 0 mm 2 m/s 747 mmHg 73%
01:00 +18°C° 0 mm 3 m/s 747 mmHg 74%
02:00 +18°C° 0 mm 3 m/s 746 mmHg 76%
03:00 +18°C° 0 mm 3 m/s 746 mmHg 78%
04:00 +17°C° 0 mm 3 m/s 745 mmHg 81%
05:00 +18°C° 0 mm 4 m/s 745 mmHg 80%
06:00 +18°C° 0 mm 4 m/s 744 mmHg 80%
07:00 +18°C° 0 mm 4 m/s 744 mmHg 79%
08:00 +20°C° 0 mm 4 m/s 744 mmHg 73%
09:00 +21°C° 0 mm 4 m/s 743 mmHg 67%
10:00 +22°C° 0 mm 4 m/s 743 mmHg 61%
11:00 +22°C° 0 mm 4 m/s 743 mmHg 65%
12:00 +21°C° 0 mm 4 m/s 743 mmHg 68%
13:00 +20°C° 0 mm 4 m/s 742 mmHg 71%
14:00 +19°C° 0.1 mm 4 m/s 742 mmHg 74%
15:00 +18°C° 0.1 mm 4 m/s 742 mmHg 77%
16:00 +17°C° 0.1 mm 4 m/s 741 mmHg 79%
17:00 +15°C° 3.4 mm 5 m/s 741 mmHg 84%
18:00 +14°C° 3.4 mm 6 m/s 741 mmHg 89%
19:00 +12°C° 3.4 mm 7 m/s 740 mmHg 94%
20:00 +12°C° 1.8 mm 7 m/s 740 mmHg 92%
21:00 +12°C° 1.8 mm 7 m/s 740 mmHg 91%
22:00 +11°C° 1.8 mm 7 m/s 740 mmHg 90%
23:00 +11°C° 0.3 mm 7 m/s 740 mmHg 90%

26 Septembrie, Sâmbătă

Timp Temperatura Precipitaţii Vânt Presiune Umiditate
00:00 +11°C° 0.3 mm 6 m/s 740 mmHg 90%
01:00 +11°C° 0.3 mm 6 m/s 740 mmHg 89%
02:00 +10°C° 0.5 mm 5 m/s 740 mmHg 90%
03:00 +10°C° 0.5 mm 5 m/s 740 mmHg 91%
04:00 +10°C° 0.5 mm 5 m/s 740 mmHg 91%
05:00 +10°C° 0.4 mm 5 m/s 740 mmHg 91%
06:00 +10°C° 0.4 mm 5 m/s 740 mmHg 91%
07:00 +10°C° 0.4 mm 5 m/s 741 mmHg 91%
08:00 +10°C° 0.1 mm 5 m/s 741 mmHg 90%
09:00 +12°C° 0.1 mm 5 m/s 741 mmHg 89%
10:00 +12°C° 0.1 mm 5 m/s 742 mmHg 88%
11:00 +12°C° 0.2 mm 5 m/s 742 mmHg 87%
12:00 +12°C° 0.2 mm 5 m/s 742 mmHg 86%
13:00 +11°C° 0.2 mm 4 m/s 743 mmHg 85%
14:00 +12°C° 0 mm 4 m/s 743 mmHg 84%
15:00 +12°C° 0 mm 3 m/s 742 mmHg 83%
16:00 +12°C° 0 mm 3 m/s 742 mmHg 82%
17:00 +11°C° 0.1 mm 3 m/s 742 mmHg 83%
18:00 +11°C° 0.1 mm 3 m/s 742 mmHg 84%
19:00 +11°C° 0.1 mm 3 m/s 742 mmHg 86%
20:00 +11°C° 0.7 mm 4 m/s 741 mmHg 87%
21:00 +10°C° 0.7 mm 4 m/s 741 mmHg 87%
22:00 +9°C° 0.7 mm 5 m/s 740 mmHg 88%
23:00 +9°C° 3.8 mm 6 m/s 740 mmHg 90%
Arată mai mult